Regional Weather Roundup
Issued by NWS

Home | Current Version | Previous Version | Graphics & Text | Print | Product List | Glossary On
Versions: 1 2 3 4 5 6 7 8 9 10 11 12 13 14 15 16 17 18 19 20 21 22 23 24 25 26 27 28 29 30 31 32 33 34 35 36 37 38 39 40 41 42 43 44 45 46 47 48 49 50
000
ASUS44 KMEG 271410
RWRTN
TENNESSEE HOURLY STATE WEATHER ROUNDUP
NATIONAL WEATHER SERVICE MEMPHIS TN
800 AM CST FRI FEB 27 2015

TNZ002-004-019-021-049-052-054-088>092-271500-
WEST TENNESSEE

CITY           SKY/WX    TMP DP  RH WIND       PRES   REMARKS
MEMPHIS INTL   MOSUNNY   23  11  60 NE17      30.56R WCI   9
NWS MEMPHIS      N/A     21 N/A N/A MISG        N/A
JACKSON        CLOUDY    20  13  74 N10       30.56R WCI   9
DYERSBURG      SUNNY     18   0  45 N12       30.62R WCI   5
UNION CITY     SUNNY     14   9  79 N14       30.58R WCI  -1
PARIS          CLOUDY    16  10  79 N10       30.56S WCI   3
LEXINGTON      SUNNY     19   7  58 NE12      30.54R WCI   7
SAVANNAH       SUNNY     23   9  54 NE13      30.55R WCI  11
$$

TNZ008-025-027-028-033-062-065-066-271500-
NORTH MIDDLE TENNESSEE

CITY           SKY/WX    TMP DP  RH WIND       PRES   REMARKS
NASHVILLE      PTSUNNY   22  11  62 NE8       30.54R WCI  12
CLARKSVILLE    MOSUNNY   16   8  71 N12       30.57R WCI   3
SMYRNA         SUNNY     22   9  57 NE10      30.55R WCI  11
COOKEVILLE     SUNNY     19  10  68 NE8       30.48R WCI   9
CROSSVILLE     MOSUNNY   18  10  71 N8        30.41R WCI   8
$$

TNZ061-075-076-078-094-096-097-271500-
SOUTH MIDDLE TENNESSEE

CITY           SKY/WX    TMP DP  RH WIND       PRES   REMARKS
FAYETTEVILLE   CLOUDY    21  14  73 N12         N/A  WCI   9
TULLAHOMA      CLOUDY    21  16  79 N9        30.46R WCI  11
WINCHESTER     CLOUDY    23  18  80 N8        30.46R WCI  14
MCMINNVILLE    PTSUNNY   21  12  68 N12       30.46R WCI   9
COLUMBIA         N/A     19  18  93 N8        30.51R WCI   9
SHELBYVILLE    CLOUDY    21  18  86 N9        30.50R WCI  11
$$

TNZ017-018-042-046-047-271500-
NORTHEAST TENNESSEE

CITY           SKY/WX    TMP DP  RH WIND       PRES   REMARKS
TRI CITIES     CLOUDY    27  19  72 N6        30.37R WCI  20
ELIZABETHTON   CLOUDY    25  18  74 CALM      30.35R
$$

TNZ012-013-036-069-073-074-271500-
CENTRAL EAST TENNESSEE

CITY           SKY/WX    TMP DP  RH WIND       PRES   REMARKS
KNOXVILLE      CLOUDY    25  16  68 N9        30.44R WCI  15
OAK RIDGE      CLOUDY    26  17  68 CALM      30.46R
GATLINBURG     CLOUDY    23  18  80 NW6       30.43R WCI  16
MORRISTOWN     SUNNY     25  16  68 NW9       30.41R WCI  15
$$

TNZ083-085-099-271500-
SOUTHEAST TENNESSEE

CITY           SKY/WX    TMP DP  RH WIND       PRES   REMARKS
CHATTANOOGA    PTSUNNY   29  18  63 N12       30.46R WCI  19
$$

SKY/WX REPORTED AS FAIR MEANS FEW OR NO CLOUDS BELOW
12 THOUSAND FEET.




USA.gov is the U.S. government's official web portal to all federal, state and local government web resources and services.